Temperature
5 5 5 4 4 4 4 3 1 1 1 0 -0 -0 -0 -1 -3 -4 -5 -5 -7 -8 -9 -9 -10 -10 -10 -10 -10 -10 -9 -9 -9 -8 -8 -7 -7 -7 -6 -6 -5 -4 -4 -3
4 4 3 3 3 3 3 3 2 1 1 1 1 0 -0 -3 -5 -5 -6 -7 -8 -9 -10 -10 -11 -11 -11 -11 -10 -10 -10 -10 -9 -9 -9 -8 -8 -8 -7 -7 -6 -5 -5 -5
1 1 3 1 2 2 3 3 1 0 -0 0 -1 -1 -1 -4 -6 -6 -7 -8 -9 -10 -11 -11 -12 -12 -11 -11 -11 -10 -10 -10 -10 -10 -10 -9 -9 -9 -8 -8 -7 -7 -7 -6
0 1 2 2 3 3 2 2 1 1 -0 0 -1 -1 -2 -5 -6 -7 -8 -9 -10 -10 -11 -12 -12 -12 -12 -11 -11 -11 -10 -10 -11 -10 -10 -10 -10 -9 -9 -9 -8 -8 -8 -8
-1 -0 -0 2 3 3 2 1 1 0 -0 -0 -2 -2 -3 -5 -6 -7 -8 -9 -10 -11 -12 -12 -12 -12 -12 -12 -11 -11 -11 -11 -11 -11 -11 -11 -10 -10 -10 -9 -9 -9 -9 -9
-1 0 0 1 3 4 2 0 1 0 -1 -2 -4 -4 -4 -5 -7 -8 -9 -10 -10 -11 -11 -12 -12 -12 -12 -12 -12 -12 -12 -12 -12 -12 -12 -12 -11 -11 -11 -10 -10 -9 -9 -9
-1 -2 -1 1 3 2 -0 -0 2 1 -2 -3 -5 -5 -6 -7 -8 -9 -10 -10 -10 -11 -12 -12 -12 -12 -13 -13 -14 -13 -13 -13 -13 -13 -13 -13 -12 -12 -12 -11 -11 -10 -10 -10
-2 -3 -2 2 2 1 1 2 1 -1 -3 -4 -5 -6 -7 -8 -9 -10 -10 -10 -10 -11 -12 -12 -13 -13 -14 -14 -14 -14 -14 -14 -14 -14 -14 -14 -13 -13 -12 -12 -12 -11 -11 -11
-1 -0 2 3 3 2 2 1 -0 -1 -3 -4 -6 -7 -8 -9 -9 -10 -10 -10 -11 -12 -12 -13 -13 -14 -14 -15 -15 -15 -14 -15 -15 -15 -15 -15 -14 -14 -13 -13 -12 -12 -12 -12
-0 -0 2 2 2 2 1 1 -0 -2 -3 -5 -6 -8 -8 -9 -9 -10 -10 -11 -12 -12 -13 -13 -14 -14 -15 -15 -15 -15 -15 -15 -15 -15 -15 -15 -15 -15 -14 -14 -13 -13 -13 -13
-0 1 2 2 2 1 1 -0 -2 -3 -4 -6 -7 -8 -9 -9 -10 -10 -11 -12 -12 -13 -13 -14 -14 -15 -15 -15 -15 -15 -15 -15 -15 -15 -15 -15 -15 -15 -15 -15 -14 -14 -14 -13
-1 1 2 2 1 1 -0 -1 -3 -4 -5 -7 -8 -8 -9 -9 -10 -11 -11 -12 -12 -13 -13 -14 -14 -14 -15 -15 -15 -15 -15 -15 -16 -15 -16 -16 -15 -15 -15 -15 -15 -15 -14 -14
3 2 2 1 1 0 -1 -3 -4 -5 -6 -8 -8 -8 -9 -10 -10 -11 -11 -12 -12 -13 -13 -14 -14 -14 -14 -14 -15 -15 -15 -15 -15 -15 -15 -16 -16 -15 -15 -15 -15 -15 -15 -15
2 2 1 1 0 -1 -2 -4 -5 -6 -7 -8 -8 -9 -9 -10 -10 -11 -11 -12 -12 -13 -13 -13 -14 -14 -14 -14 -14 -14 -15 -15 -15 -15 -15 -15 -15 -15 -15 -15 -15 -15 -15 -15
1 1 1 0 -1 -2 -4 -5 -6 -7 -8 -8 -8 -9 -10 -10 -11 -11 -11 -12 -12 -12 -13 -13 -13 -14 -14 -14 -15 -14 -14 -14 -14 -15 -15 -15 -15 -15 -15 -15 -15 -15 -15 -15
1 1 0 -1 -2 -4 -5 -6 -6 -7 -8 -8 -9 -9 -10 -10 -11 -11 -11 -11 -12 -12 -13 -13 -13 -13 -14 -14 -14 -14 -14 -14 -14 -14 -14 -15 -15 -15 -15 -15 -15 -15 -15 -15
1 1 -0 -1 -3 -4 -5 -6 -7 -8 -8 -8 -9 -9 -10 -10 -10 -10 -10 -11 -11 -12 -12 -13 -13 -13 -13 -14 -14 -13 -13 -14 -14 -14 -15 -15 -15 -16 -15 -15 -15 -15 -15 -15
0 -0 -1 -2 -3 -4 -5 -6 -7 -8 -8 -9 -9 -10 -10 -10 -10 -10 -10 -10 -10 -10 -11 -12 -12 -13 -13 -13 -13 -13 -13 -14 -14 -14 -15 -15 -16 -16 -16 -16 -16 -16 -15 -15
-0 -1 -2 -3 -4 -5 -6 -7 -7 -8 -8 -9 -9 -10 -10 -10 -10 -10 -10 -10 -11 -10 -10 -11 -12 -12 -12 -11 -12 -13 -13 -13 -13 -13 -14 -15 -15 -15 -16 -16 -16 -16 -16 -16
-1 -2 -3 -3 -4 -5 -6 -7 -8 -8 -9 -9 -9 -9 -9 -9 -9 -9 -10 -10 -11 -10 -10 -11 -12 -11 -10 -11 -12 -11 -11 -12 -12 -13 -13 -14 -14 -14 -15 -15 -15 -16 -16 -16
-1 -2 -3 -4 -5 -6 -7 -7 -8 -8 -9 -9 -9 -9 -9 -9 -9 -10 -9 -9 -9 -9 -9 -10 -10 -10 -11 -11 -10 -9 -10 -11 -12 -12 -13 -14 -14 -14 -14 -14 -14 -15 -15 -15
-2 -3 -4 -4 -6 -7 -7 -8 -8 -8 -9 -9 -9 -9 -9 -9 -8 -8 -9 -9 -9 -9 -9 -9 -9 -10 -11 -10 -9 -9 -10 -11 -12 -12 -13 -13 -13 -13 -13 -13 -14 -14 -15 -15
-3 -3 -4 -5 -6 -7 -7 -8 -8 -8 -9 -9 -9 -9 -9 -9 -9 -9 -8 -8 -8 -8 -9 -9 -9 -10 -9 -9 -9 -9 -10 -11 -12 -12 -12 -13 -13 -13 -13 -13 -13 -14 -15 -15
-3 -4 -4 -5 -6 -7 -7 -8 -8 -8 -9 -9 -9 -8 -8 -8 -8 -9 -9 -8 -8 -8 -8 -8 -9 -9 -9 -9 -9 -9 -10 -11 -12 -12 -12 -12 -12 -12 -13 -14 -14 -15 -15 -15
-3 -4 -5 -6 -6 -7 -7 -8 -8 -8 -9 -9 -8 -8 -8 -8 -8 -8 -8 -8 -7 -7 -8 -8 -8 -8 -9 -9 -9 -9 -10 -11 -11 -11 -11 -12 -12 -12 -12 -13 -14 -15 -15 -15
-4 -4 -5 -6 -7 -7 -7 -8 -8 -8 -8 -8 -8 -9 -9 -8 -8 -8 -7 -7 -7 -7 -7 -7 -8 -8 -9 -9 -9 -9 -9 -10 -11 -11 -11 -11 -11 -12 -12 -12 -13 -13 -14 -15
-4 -5 -5 -6 -6 -7 -8 -8 -8 -8 -8 -8 -8 -8 -8 -8 -8 -7 -7 -7 -7 -7 -7 -7 -8 -8 -8 -9 -9 -9 -9 -10 -10 -10 -10 -11 -11 -12 -12 -12 -12 -13 -13 -13
Wind_Speed
4 3 3 3 5 3 4 3 1 6 7 7 10 11 12 9 9 13 15 17 18 18 18 17 18 17 17 17 18 18 17 16 15 15 16 17 17 18 17 18 18 18 17 16
5 5 5 5 7 6 5 2 3 5 6 7 10 10 14 8 11 14 15 16 17 18 18 17 17 17 17 16 17 16 16 15 15 15 15 16 15 15 16 15 15 16 16 16
4 6 3 2 3 3 2 1 1 3 7 10 10 15 14 7 11 14 15 15 15 16 16 15 14 15 15 15 15 16 16 16 15 15 15 15 16 15 14 14 12 12 13 14
2 6 1 4 3 1 3 3 3 6 8 8 8 12 2 5 9 12 12 12 12 13 14 13 12 13 13 13 14 14 15 16 16 15 15 15 15 15 13 11 10 9 9 10
2 3 6 3 4 4 4 5 4 5 9 9 10 6 2 7 10 9 8 8 8 9 10 12 12 12 12 12 13 14 15 16 16 14 14 14 15 14 11 11 10 9 6 7
3 1 5 5 6 5 1 5 5 5 7 8 11 11 4 9 10 8 7 7 8 9 9 11 12 12 10 11 12 14 15 15 15 14 13 12 14 13 11 10 11 11 10 9
4 5 7 6 6 1 2 6 7 4 5 6 5 6 9 10 8 7 8 8 9 9 9 10 11 11 10 10 12 14 15 14 14 14 13 11 12 11 11 10 10 11 11 11
5 4 8 5 1 2 6 5 2 2 3 6 7 8 9 9 8 9 10 10 10 9 10 10 10 11 11 11 13 14 14 15 14 13 13 13 12 12 11 10 9 8 8 9
8 8 5 4 3 4 3 2 1 2 4 5 5 6 9 8 7 8 9 9 8 9 10 9 9 10 11 13 13 15 14 14 13 14 12 12 11 10 10 9 9 7 6 7
4 6 4 3 4 2 1 3 3 2 3 1 3 5 6 8 9 8 8 7 8 9 10 9 9 11 10 12 14 13 13 12 12 10 11 11 11 11 10 10 10 10 9 8
4 5 2 2 2 2 3 4 3 1 1 2 4 5 5 6 7 8 9 8 8 8 8 9 10 11 12 12 12 11 11 11 11 10 9 8 10 9 11 8 12 11 8 8
7 6 4 5 3 3 4 4 3 1 3 5 6 4 5 5 6 6 7 7 8 8 10 10 10 11 11 11 11 10 12 11 10 8 7 8 7 8 14 15 18 18 17 14
6 5 5 2 2 2 4 4 3 4 5 4 4 4 4 4 5 7 7 8 8 10 10 10 11 11 12 12 13 11 11 12 9 10 8 8 9 8 8 11 15 16 17 17
3 4 2 2 2 5 6 6 7 7 6 4 3 4 4 5 5 6 8 8 9 10 11 11 11 12 12 12 13 12 11 14 13 8 7 6 7 7 7 8 8 7 11 15
5 4 4 5 6 6 5 5 6 5 3 4 4 5 5 6 6 7 8 9 10 10 10 11 12 13 13 13 14 13 13 11 11 9 7 7 7 7 7 8 7 7 6 8
5 5 6 6 6 5 4 5 5 3 2 3 4 5 5 5 6 7 8 9 10 11 12 12 13 14 15 14 15 13 12 21 19 13 9 9 9 9 8 8 8 7 6 6
4 2 3 3 5 5 4 5 5 4 2 3 4 5 6 6 7 8 10 10 9 11 11 12 14 16 16 14 14 13 13 16 23 18 12 12 11 10 10 9 8 8 7 9
5 3 3 4 5 7 7 6 5 4 2 2 3 5 6 7 9 10 11 12 12 12 10 11 14 17 14 15 15 14 14 15 14 14 13 12 12 11 10 10 10 10 9 9
7 7 7 6 7 8 7 6 5 4 3 3 4 4 5 6 7 9 11 11 12 13 13 15 24 18 16 20 22 14 14 14 14 14 13 16 15 11 11 11 11 10 10 9
8 8 8 7 7 6 6 6 6 4 3 3 3 5 7 8 8 10 11 10 8 9 14 18 16 14 16 19 22 13 14 14 15 15 14 13 13 13 12 11 11 11 10 9
9 8 8 8 7 6 6 6 6 5 3 3 3 4 7 8 9 9 9 11 11 13 17 22 16 14 16 19 19 13 14 14 15 15 15 15 14 14 13 12 11 10 9 9
8 8 9 9 8 6 5 5 5 4 3 2 3 5 6 8 9 9 8 7 11 22 17 12 13 19 25 22 13 14 15 16 15 15 15 15 15 14 12 11 9 8 7 7
8 9 10 9 8 7 6 4 4 3 2 2 4 6 6 7 7 8 11 10 12 21 16 11 20 28 29 17 14 15 16 17 16 16 15 15 15 15 13 11 7 2 2 3
8 9 9 8 8 7 6 4 3 2 1 3 5 6 5 6 7 5 7 16 21 22 13 18 27 28 25 14 14 15 16 16 15 14 14 14 14 14 14 13 10 7 5 3
8 8 8 9 8 6 6 5 3 1 2 3 4 5 4 4 5 9 10 12 19 19 13 18 26 26 17 14 15 16 16 16 16 13 12 12 13 12 13 12 11 9 7 5
8 8 8 7 6 6 5 5 3 2 1 1 3 4 5 5 5 6 8 10 12 17 13 10 13 16 13 14 15 17 16 17 15 12 11 11 11 11 10 10 11 8 7 6
8 7 6 5 5 6 5 5 4 3 2 1 2 4 5 6 7 8 10 10 11 11 11 10 11 12 11 14 15 16 16 16 14 12 9 9 8 8 8 9 7 6 5 5
Wind_Direction
285 356 356 330 338 9 83 102 171 288 293 313 322 310 315 332 350 351 351 353 354 352 350 352 353 348 345 340 338 338 338 337 339 342 343 346 349 351 355 0 4 8 16 25
316 13 25 50 24 49 73 75 312 309 296 289 296 308 333 0 357 351 350 351 352 351 349 350 349 344 341 339 338 339 339 338 339 343 345 345 346 349 352 358 4 10 16 20
287 332 61 6 358 32 2 346 289 275 272 293 312 329 332 357 355 350 349 351 351 349 347 344 341 338 336 336 337 341 342 341 341 344 346 347 348 349 350 352 358 7 13 16
304 16 324 238 215 219 268 228 203 255 274 285 297 303 348 34 359 350 351 354 354 349 343 336 332 333 332 334 339 342 344 344 342 344 345 347 349 350 346 345 350 358 7 10
82 331 285 256 264 256 261 255 210 277 297 312 322 308 146 32 10 355 3 2 354 345 333 329 330 330 330 335 341 344 345 343 342 342 345 350 349 348 346 347 350 346 351 359
115 263 262 242 254 270 255 276 250 285 310 325 342 342 325 6 4 6 13 2 351 340 331 333 333 333 330 335 343 344 342 339 340 342 342 350 351 346 346 351 357 1 7 11
175 229 266 250 267 45 86 275 294 321 331 329 322 292 321 349 355 9 10 357 345 334 328 327 330 335 334 336 342 341 340 340 341 343 341 349 348 347 345 350 356 3 10 14
166 209 261 249 258 177 240 260 288 314 302 293 287 310 335 343 353 6 360 351 343 337 333 327 329 337 340 341 339 340 340 341 340 343 348 351 343 345 347 349 347 350 358 4
189 213 229 234 223 218 227 252 180 220 278 288 304 330 340 347 358 1 351 341 334 330 328 329 330 339 340 340 340 342 341 341 341 348 348 348 344 345 346 351 347 345 352 356
224 256 237 210 203 216 157 154 157 192 282 310 335 342 354 353 352 350 342 337 332 335 334 331 333 342 337 337 342 341 341 340 344 350 348 345 349 351 351 352 352 2 359 351
239 277 305 218 259 184 155 140 135 325 23 58 34 23 8 350 343 338 340 334 335 329 324 328 333 334 335 337 336 336 337 337 338 346 339 338 343 345 349 344 354 359 353 349
217 218 199 255 267 182 174 161 165 157 69 63 59 33 3 343 331 328 329 328 326 327 334 334 330 327 326 328 329 330 340 337 334 337 336 337 331 337 344 349 352 355 353 353
196 191 189 221 94 115 132 141 132 94 90 79 55 30 4 336 325 333 334 332 328 331 333 328 326 323 323 326 326 323 326 327 323 328 326 330 331 328 325 332 342 348 349 349
147 129 114 39 60 99 114 113 100 90 85 77 44 18 356 341 334 338 332 326 327 327 325 323 323 321 320 321 323 321 316 316 317 306 300 301 307 308 309 312 316 319 332 340
105 111 132 118 111 110 109 112 105 93 75 46 21 7 353 346 335 325 320 330 331 326 322 321 321 319 319 319 321 318 314 308 303 296 286 289 295 295 294 295 298 300 303 317
122 113 124 135 144 139 127 119 118 111 74 34 9 353 341 329 319 318 324 332 330 322 317 315 314 315 317 314 316 313 305 305 308 300 294 297 294 290 288 284 285 284 285 286
139 164 171 167 160 145 124 120 128 129 95 38 360 346 342 336 333 334 330 324 314 304 303 305 310 313 310 308 309 307 301 302 304 302 298 295 290 284 280 276 273 276 273 279
135 143 147 158 154 139 127 124 126 116 91 49 27 8 353 347 337 326 323 322 321 317 311 310 312 310 308 311 309 303 301 302 305 306 306 303 297 288 281 276 273 274 273 276
122 120 113 110 120 129 134 138 134 122 98 66 37 1 333 325 319 316 319 322 322 323 318 315 317 323 314 314 315 309 314 317 319 315 311 308 307 297 287 279 273 268 267 267
125 124 118 110 108 121 135 143 139 123 99 69 29 356 343 332 324 323 322 315 301 299 306 313 322 323 317 315 324 333 331 325 319 316 314 310 304 297 289 279 272 265 259 256
142 136 132 127 122 124 130 137 135 127 105 68 29 347 328 320 321 324 325 324 320 319 322 329 333 323 321 335 342 336 330 327 324 320 318 314 309 302 293 281 270 261 254 248
150 147 145 139 131 123 117 125 134 132 112 40 349 333 331 329 327 323 307 294 312 326 332 330 327 330 343 348 340 336 333 331 329 327 327 327 326 322 314 302 280 259 245 235
154 152 150 148 145 138 127 130 143 142 124 345 327 326 323 316 319 324 327 323 324 330 336 329 335 343 350 348 340 337 335 335 334 336 339 343 345 347 345 339 333 307 210 200
146 145 141 133 131 137 154 179 185 177 250 299 296 297 302 317 322 298 302 322 333 335 337 336 345 349 352 347 341 339 339 339 341 347 351 355 360 3 8 13 26 40 48 68
133 133 137 144 154 168 172 175 181 229 280 293 296 299 303 302 302 313 319 323 334 341 339 341 347 349 350 342 343 343 342 343 349 357 360 5 9 12 18 24 30 34 36 37
143 152 159 164 162 158 161 168 176 185 170 331 321 321 324 319 308 314 323 327 333 342 343 339 340 345 345 345 345 345 345 345 348 359 6 10 11 16 19 21 23 26 24 25
133 139 144 148 157 164 168 173 168 168 171 263 313 323 330 334 335 336 336 340 341 341 342 342 344 344 345 347 348 348 348 348 351 0 8 11 12 13 14 15 15 11 10 17
Height
1587 1587 1586 1585 1585 1582 1584 1590 1596 1595 1591 1585 1581 1576 1569 1563 1557 1553 1548 1543 1537 1532 1525 1519 1511 1504 1498 1492 1486 1480 1473 1466 1460 1453 1448 1442 1436 1430 1423 1417 1410 1403 1398 1394
1589 1587 1587 1589 1588 1587 1588 1589 1590 1589 1588 1582 1578 1572 1565 1559 1555 1551 1547 1542 1537 1531 1525 1518 1511 1505 1498 1492 1486 1480 1473 1466 1460 1453 1447 1441 1436 1431 1425 1420 1414 1409 1403 1399
1597 1595 1588 1596 1592 1590 1588 1587 1589 1590 1587 1579 1574 1568 1563 1558 1554 1551 1546 1541 1536 1531 1525 1518 1512 1506 1499 1493 1486 1480 1474 1467 1460 1454 1448 1442 1437 1432 1426 1422 1417 1412 1408 1404
1601 1599 1598 1596 1589 1588 1587 1586 1585 1584 1580 1576 1572 1567 1561 1557 1554 1550 1545 1540 1535 1530 1524 1518 1512 1506 1500 1493 1486 1480 1474 1467 1461 1455 1449 1444 1438 1433 1428 1423 1419 1415 1411 1407
1607 1603 1600 1593 1588 1586 1586 1584 1582 1579 1575 1570 1567 1562 1559 1556 1553 1549 1545 1540 1535 1529 1523 1517 1511 1505 1499 1492 1485 1479 1473 1467 1461 1456 1450 1445 1439 1434 1430 1425 1420 1416 1413 1410
1605 1603 1599 1592 1585 1582 1584 1583 1579 1576 1573 1570 1564 1561 1559 1555 1551 1547 1543 1538 1533 1527 1522 1516 1510 1504 1497 1491 1484 1478 1472 1467 1461 1456 1451 1445 1440 1436 1431 1427 1422 1418 1415 1412
1603 1607 1597 1587 1582 1583 1589 1586 1577 1574 1572 1569 1565 1564 1559 1554 1549 1545 1541 1536 1530 1525 1520 1515 1509 1503 1496 1490 1484 1478 1472 1466 1461 1455 1450 1446 1441 1436 1431 1427 1423 1420 1416 1413
1603 1608 1599 1581 1581 1583 1582 1577 1575 1572 1570 1567 1563 1559 1556 1551 1547 1542 1538 1533 1528 1523 1519 1513 1507 1501 1495 1489 1484 1477 1471 1465 1460 1455 1450 1445 1440 1435 1431 1428 1424 1420 1417 1415
1589 1587 1580 1579 1579 1579 1577 1575 1572 1570 1567 1564 1560 1556 1553 1549 1545 1540 1535 1531 1526 1522 1517 1512 1506 1500 1494 1489 1483 1477 1471 1465 1460 1456 1451 1445 1440 1435 1432 1428 1425 1421 1418 1415
1580 1578 1577 1577 1577 1576 1574 1572 1570 1567 1564 1560 1557 1554 1551 1547 1542 1538 1533 1529 1524 1519 1514 1509 1504 1499 1494 1489 1483 1477 1471 1466 1461 1456 1451 1446 1442 1437 1434 1430 1426 1423 1420 1417
1577 1575 1575 1575 1575 1573 1571 1569 1567 1565 1562 1558 1555 1552 1549 1545 1541 1536 1532 1528 1523 1518 1512 1508 1503 1498 1494 1488 1483 1477 1472 1466 1462 1457 1452 1447 1443 1439 1436 1432 1429 1425 1421 1418
1575 1572 1573 1573 1572 1571 1569 1567 1565 1562 1559 1556 1553 1550 1546 1543 1539 1535 1530 1526 1521 1516 1511 1507 1502 1498 1493 1488 1483 1477 1472 1466 1461 1457 1452 1447 1443 1439 1435 1433 1429 1425 1421 1418
1569 1570 1571 1571 1570 1568 1566 1564 1562 1559 1556 1554 1551 1548 1544 1541 1537 1533 1529 1524 1519 1514 1510 1505 1501 1497 1492 1487 1482 1477 1471 1466 1461 1456 1451 1446 1441 1437 1433 1430 1427 1423 1420 1417
1567 1568 1568 1568 1567 1565 1563 1561 1559 1556 1554 1552 1550 1546 1543 1540 1536 1531 1527 1522 1518 1513 1509 1504 1500 1495 1491 1486 1480 1475 1470 1464 1459 1453 1448 1443 1439 1434 1431 1427 1423 1420 1418 1415
1565 1565 1566 1565 1563 1562 1560 1558 1556 1554 1553 1551 1548 1545 1542 1538 1534 1530 1526 1521 1517 1513 1508 1503 1498 1493 1488 1483 1477 1471 1466 1460 1454 1449 1444 1439 1435 1430 1426 1423 1420 1418 1415 1413
1562 1563 1562 1561 1560 1558 1557 1555 1554 1553 1551 1549 1547 1545 1541 1538 1534 1530 1526 1521 1516 1511 1506 1501 1496 1491 1485 1479 1473 1466 1460 1455 1450 1443 1438 1433 1428 1424 1420 1418 1415 1413 1411 1410
1560 1560 1560 1558 1557 1556 1555 1553 1552 1551 1550 1548 1546 1544 1541 1537 1534 1530 1525 1521 1516 1511 1506 1500 1494 1488 1482 1476 1469 1462 1454 1447 1442 1436 1430 1425 1420 1416 1413 1410 1409 1407 1406 1405
1557 1557 1556 1555 1554 1553 1552 1552 1551 1550 1549 1548 1546 1543 1540 1537 1533 1529 1525 1521 1516 1511 1506 1500 1492 1485 1479 1472 1465 1456 1449 1442 1435 1430 1423 1417 1413 1409 1406 1403 1401 1400 1399 1399
1553 1553 1552 1551 1551 1550 1550 1550 1550 1549 1548 1547 1545 1543 1540 1537 1534 1530 1526 1520 1514 1508 1502 1496 1489 1482 1475 1468 1461 1453 1446 1439 1431 1424 1418 1412 1406 1402 1398 1395 1393 1392 1392 1392
1550 1550 1549 1549 1549 1549 1550 1550 1550 1549 1548 1546 1545 1542 1540 1537 1534 1530 1525 1521 1515 1508 1501 1494 1487 1481 1473 1466 1460 1452 1444 1436 1428 1421 1414 1407 1401 1396 1391 1388 1386 1384 1384 1385
1548 1548 1547 1547 1548 1548 1549 1549 1549 1548 1547 1546 1544 1542 1540 1537 1534 1531 1525 1520 1515 1508 1501 1495 1488 1480 1473 1468 1461 1452 1443 1435 1427 1420 1412 1404 1397 1390 1385 1381 1378 1377 1377 1378
1545 1545 1545 1546 1547 1547 1548 1549 1548 1548 1547 1546 1544 1542 1540 1538 1535 1532 1528 1521 1515 1508 1502 1496 1488 1482 1476 1469 1461 1452 1444 1436 1428 1419 1411 1402 1394 1387 1380 1375 1372 1370 1371 1373
1543 1543 1544 1544 1546 1547 1547 1548 1548 1548 1547 1546 1545 1543 1541 1538 1535 1531 1527 1522 1516 1510 1505 1498 1491 1484 1478 1470 1462 1453 1445 1436 1428 1420 1412 1404 1395 1386 1379 1373 1369 1368 1369 1370
1541 1541 1542 1543 1544 1545 1546 1547 1547 1547 1547 1546 1545 1544 1542 1539 1537 1534 1529 1524 1519 1513 1507 1501 1494 1487 1480 1471 1463 1454 1446 1438 1431 1424 1416 1407 1399 1390 1383 1377 1373 1371 1371 1372
1539 1539 1540 1541 1543 1544 1545 1546 1547 1547 1546 1546 1545 1544 1542 1540 1537 1534 1531 1526 1521 1515 1509 1503 1496 1489 1481 1473 1465 1458 1450 1442 1436 1429 1421 1413 1405 1397 1391 1385 1381 1378 1377 1377
1536 1537 1538 1540 1541 1543 1544 1545 1546 1546 1546 1546 1546 1545 1543 1541 1539 1536 1533 1528 1523 1517 1511 1505 1498 1490 1483 1476 1469 1462 1454 1446 1439 1433 1426 1419 1412 1406 1400 1395 1390 1387 1384 1383
1533 1534 1535 1537 1539 1541 1542 1544 1545 1546 1546 1546 1546 1545 1544 1542 1540 1537 1534 1530 1525 1519 1513 1507 1500 1493 1486 1479 1473 1466 1459 1451 1444 1438 1432 1425 1418 1413 1408 1403 1399 1395 1392 1389